User: anonymous
Location: Caltech
(34.1382°N, 118.1253°W)
Time: 06:09:06
(UTC-07:00)
Language:

SL-08 R/B - Orbit

View from above orbital plane
View from above orbital plane
View from above satellite
View from above satellite

Ground track
Ground track

The orbit data is extracted from the following two-line orbital elements,

1 27561U 02054C   14211.03238814  .00000290  00000-0  77058-4 0  2467
2 27561 098.1118 349.9275 0046831 195.1040 300.3854 14.54923323619108
Epoch (UTC): 30 July 2014 00:46:38
Eccentricity: 0.0046831
inclination: 98.1118°
perigee height: 676 km
apogee height: 743 km
right ascension of ascending node: 349.9275°
argument of perigee: 195.1040°
revolutions per day: 14.54923323
mean anomaly at epoch: 300.3854°
orbit number at epoch: 61910

The dashed part of the orbit path shows where the satellite is in the earth's shadow,  

DLR